• In Austria
  • List of Countries
  • For 7 days
  • Water Temperature
  • Satellite Maps
  • Weather Map
  • News
  • Weather Widgets
  • user-avatar
    Login

    Hourly Weather Beziers

    Today, 20 January, Saturday

    Time Temperature Precipitation Wind Pressure Humidity
    00:00 +6°C° 0 mm 7 mps 760 mmHg 76%
    01:00 +6°C° 0 mm 7 mps 759 mmHg 76%
    02:00 +6°C° 0 mm 7 mps 759 mmHg 77%
    03:00 +5°C° 0 mm 6 mps 759 mmHg 77%
    04:00 +5°C° 0 mm 6 mps 759 mmHg 77%
    05:00 +5°C° 0 mm 6 mps 759 mmHg 77%
    06:00 +7°C° 0 mm 6 mps 759 mmHg 78%
    07:00 +7°C° 0 mm 5 mps 758 mmHg 77%
    08:00 +8°C° 0 mm 5 mps 758 mmHg 77%
    09:00 +8°C° 0 mm 4 mps 758 mmHg 76%
    10:00 +9°C° 0.2 mm 5 mps 757 mmHg 73%
    11:00 +9°C° 0.2 mm 5 mps 756 mmHg 71%
    12:00 +10°C° 0 mm 5 mps 756 mmHg 69%
    13:00 +10°C° 1 mm 6 mps 755 mmHg 72%
    14:00 +10°C° 1 mm 7 mps 755 mmHg 75%
    15:00 +10°C° 1 mm 8 mps 754 mmHg 78%
    16:00 +11°C° 0.2 mm 8 mps 754 mmHg 79%
    17:00 +11°C° 0.2 mm 8 mps 754 mmHg 80%
    18:00 +11°C° 0.2 mm 8 mps 754 mmHg 81%
    19:00 +12°C° 0.2 mm 9 mps 754 mmHg 81%
    20:00 +13°C° 0.2 mm 9 mps 754 mmHg 80%
    21:00 +13°C° 0.2 mm 9 mps 754 mmHg 80%
    22:00 +13°C° 0.1 mm 9 mps 754 mmHg 80%
    23:00 +13°C° 0.1 mm 9 mps 754 mmHg 80%

    Tomorrow, 21 January, Sunday

    Time Temperature Precipitation Wind Pressure Humidity
    00:00 +14°C° 0.1 mm 10 mps 754 mmHg 79%
    01:00 +13°C° 0.1 mm 9 mps 754 mmHg 79%
    02:00 +13°C° 0.1 mm 9 mps 754 mmHg 79%
    03:00 +13°C° 0.1 mm 8 mps 755 mmHg 79%
    04:00 +15°C° 0.1 mm 8 mps 755 mmHg 79%
    05:00 +15°C° 0.1 mm 8 mps 755 mmHg 79%
    06:00 +15°C° 0.1 mm 8 mps 756 mmHg 80%
    07:00 +15°C° 0.1 mm 8 mps 756 mmHg 80%
    08:00 +15°C° 0.1 mm 8 mps 756 mmHg 80%
    09:00 +15°C° 0.1 mm 8 mps 757 mmHg 81%
    10:00 +15°C° 0.1 mm 8 mps 757 mmHg 79%
    11:00 +16°C° 0.1 mm 9 mps 757 mmHg 77%
    12:00 +16°C° 0.1 mm 9 mps 757 mmHg 75%
    13:00 +16°C° 0.1 mm 9 mps 757 mmHg 76%
    14:00 +16°C° 0.1 mm 9 mps 757 mmHg 76%
    15:00 +16°C° 0.1 mm 9 mps 758 mmHg 77%
    16:00 +16°C° 0.1 mm 9 mps 758 mmHg 78%
    17:00 +15°C° 0.1 mm 9 mps 758 mmHg 78%
    18:00 +15°C° 0.1 mm 9 mps 759 mmHg 79%
    19:00 +15°C° 0.1 mm 9 mps 759 mmHg 78%
    20:00 +13°C° 0.1 mm 9 mps 760 mmHg 77%
    21:00 +13°C° 0.1 mm 9 mps 760 mmHg 77%
    22:00 +13°C° 0 mm 9 mps 760 mmHg 76%
    23:00 +13°C° 0 mm 9 mps 760 mmHg 76%

    Day after tomorrow, 22 January, Monday

    Time Temperature Precipitation Wind Pressure Humidity
    00:00 +13°C° 0 mm 9 mps 760 mmHg 76%
    01:00 +13°C° 0 mm 9 mps 760 mmHg 76%
    02:00 +13°C° 0 mm 9 mps 760 mmHg 75%
    03:00 +13°C° 0 mm 9 mps 760 mmHg 75%
    04:00 +13°C° 0 mm 9 mps 760 mmHg 75%
    05:00 +13°C° 0 mm 9 mps 760 mmHg 75%
    06:00 +13°C° 0 mm 9 mps 760 mmHg 76%
    07:00 +13°C° 0 mm 9 mps 760 mmHg 76%
    08:00 +13°C° 0 mm 9 mps 760 mmHg 76%
    09:00 +14°C° 0 mm 10 mps 760 mmHg 76%
    10:00 +14°C° 0 mm 10 mps 760 mmHg 74%
    11:00 +14°C° 0 mm 10 mps 760 mmHg 72%
    12:00 +16°C° 0 mm 10 mps 760 mmHg 70%
    13:00 +14°C° 0 mm 10 mps 760 mmHg 71%
    14:00 +15°C° 0 mm 9 mps 760 mmHg 71%
    15:00 +15°C° 0 mm 9 mps 760 mmHg 71%
    16:00 +13°C° 0 mm 9 mps 760 mmHg 72%
    17:00 +13°C° 0 mm 8 mps 760 mmHg 73%
    18:00 +13°C° 0 mm 8 mps 761 mmHg 75%
    19:00 +13°C° 0 mm 8 mps 761 mmHg 75%
    20:00 +12°C° 0 mm 8 mps 761 mmHg 76%
    21:00 +12°C° 0 mm 7 mps 761 mmHg 76%
    22:00 +12°C° 0.1 mm 8 mps 761 mmHg 77%
    23:00 +12°C° 0.1 mm 8 mps 761 mmHg 77%

    23 January, Tuesday

    Time Temperature Precipitation Wind Pressure Humidity
    00:00 +12°C° 0.1 mm 8 mps 761 mmHg 77%
    01:00 +12°C° 0.1 mm 8 mps 761 mmHg 78%
    02:00 +12°C° 0.1 mm 8 mps 761 mmHg 79%
    03:00 +12°C° 0.1 mm 8 mps 761 mmHg 79%
    04:00 +12°C° 0 mm 7 mps 761 mmHg 80%
    05:00 +12°C° 0 mm 7 mps 761 mmHg 81%
    06:00 +13°C° 0 mm 6 mps 761 mmHg 82%
    07:00 +13°C° 0 mm 6 mps 762 mmHg 81%
    08:00 +14°C° 0 mm 6 mps 762 mmHg 80%
    09:00 +14°C° 0 mm 6 mps 762 mmHg 79%
    10:00 +14°C° 0 mm 6 mps 762 mmHg 77%
    11:00 +15°C° 0 mm 6 mps 762 mmHg 75%
    12:00 +16°C° 0 mm 7 mps 762 mmHg 74%
    13:00 +16°C° 0 mm 6 mps 762 mmHg 74%
    14:00 +16°C° 0 mm 6 mps 762 mmHg 74%
    15:00 +16°C° 0 mm 5 mps 762 mmHg 74%
    16:00 +15°C° 0 mm 5 mps 762 mmHg 78%
    17:00 +14°C° 0 mm 4 mps 762 mmHg 82%
    18:00 +13°C° 0 mm 4 mps 763 mmHg 87%
    19:00 +13°C° 0 mm 4 mps 763 mmHg 88%
    20:00 +13°C° 0 mm 3 mps 763 mmHg 89%
    21:00 +12°C° 0 mm 3 mps 764 mmHg 90%
    22:00 +12°C° 0 mm 3 mps 764 mmHg 90%
    23:00 +12°C° 0 mm 3 mps 764 mmHg 91%

    24 January, Wednesday

    Time Temperature Precipitation Wind Pressure Humidity
    00:00 +12°C° 0 mm 2 mps 763 mmHg 91%
    01:00 +12°C° 0 mm 2 mps 763 mmHg 91%
    02:00 +12°C° 0 mm 2 mps 763 mmHg 90%
    03:00 +11°C° 0 mm 1 mps 763 mmHg 90%
    04:00 +11°C° 0 mm 1 mps 763 mmHg 90%
    05:00 +11°C° 0 mm 1 mps 763 mmHg 90%
    06:00 +10°C° 0 mm 2 mps 763 mmHg 90%
    07:00 +10°C° 0 mm 2 mps 763 mmHg 88%
    08:00 +12°C° 0 mm 2 mps 763 mmHg 87%
    09:00 +12°C° 0 mm 3 mps 763 mmHg 85%
    10:00 +12°C° 0 mm 3 mps 763 mmHg 83%
    11:00 +13°C° 0 mm 3 mps 763 mmHg 80%
    12:00 +14°C° 0 mm 4 mps 762 mmHg 78%
    13:00 +14°C° 0 mm 4 mps 762 mmHg 81%
    14:00 +13°C° 0 mm 4 mps 762 mmHg 83%
    15:00 +13°C° 0 mm 4 mps 761 mmHg 86%
    16:00 +12°C° 0 mm 4 mps 761 mmHg 89%
    17:00 +12°C° 0 mm 4 mps 762 mmHg 91%
    18:00 +12°C° 0 mm 4 mps 762 mmHg 94%
    19:00 +12°C° 0 mm 4 mps 762 mmHg 94%
    20:00 +12°C° 0 mm 4 mps 762 mmHg 94%
    21:00 +12°C° 0 mm 4 mps 762 mmHg 95%
    22:00 +12°C° 0.1 mm 5 mps 761 mmHg 95%
    23:00 +12°C° 0.1 mm 5 mps 761 mmHg 94%

    25 January, Thursday

    Time Temperature Precipitation Wind Pressure Humidity
    00:00 +11°C° 0.1 mm 6 mps 761 mmHg 94%
    01:00 +11°C° 0 mm 6 mps 760 mmHg 94%
    02:00 +11°C° 0 mm 6 mps 760 mmHg 94%
    03:00 +11°C° 0 mm 6 mps 759 mmHg 94%
    04:00 +11°C° 0.1 mm 6 mps 759 mmHg 94%
    05:00 +11°C° 0.1 mm 6 mps 759 mmHg 94%
    06:00 +11°C° 0.1 mm 6 mps 759 mmHg 94%
    07:00 +11°C° 0.1 mm 6 mps 759 mmHg 93%
    08:00 +12°C° 0.1 mm 5 mps 759 mmHg 93%
    09:00 +12°C° 0.1 mm 5 mps 759 mmHg 92%
    10:00 +12°C° 0.1 mm 5 mps 758 mmHg 90%
    11:00 +13°C° 0.1 mm 4 mps 758 mmHg 89%
    12:00 +13°C° 0.1 mm 4 mps 758 mmHg 87%
    13:00 +13°C° 0.1 mm 4 mps 757 mmHg 87%
    14:00 +13°C° 0.1 mm 3 mps 757 mmHg 87%
    15:00 +13°C° 0.1 mm 3 mps 757 mmHg 87%
    16:00 +12°C° 0.1 mm 3 mps 757 mmHg 88%
    17:00 +12°C° 0.1 mm 3 mps 757 mmHg 89%
    18:00 +11°C° 0.1 mm 3 mps 758 mmHg 90%
    19:00 +11°C° 0 mm 3 mps 758 mmHg 89%
    20:00 +10°C° 0 mm 4 mps 758 mmHg 88%
    21:00 +10°C° 0 mm 4 mps 758 mmHg 87%
    22:00 +10°C° 0 mm 4 mps 758 mmHg 86%
    23:00 +8°C° 0 mm 4 mps 758 mmHg 85%
    Show more